Regional Weather Roundup
Issued by NWS

Home | Current Version | Previous Version | Graphics & Text | Print | Product List | Glossary On
Versions: 1 2 3 4 5 6 7 8 9 10 11 12 13 14 15 16 17 18 19 20 21 22 23 24 25 26 27 28 29 30 31 32 33 34 35 36 37 38 39 40 41 42 43 44 45 46 47 48 49 50
000
ASUS45 KTFX 301110
RWRMT
MONTANA REGIONAL WEATHER ROUNDUP
NATIONAL WEATHER SERVICE GREAT FALLS MT
500 AM MDT THU JUL 30 2015

NOTE: "FAIR" INDICATES FEW OR NO CLOUDS BELOW 12000 FEET WITH NO
SIGNIFICANT WEATHER AND/OR OBSTRUCTIONS TO VISIBILITY.

MTZ001>007-043-301200-
WEST OF THE DIVIDE

CITY           SKY/WX    TMP DP  RH WIND       PRES   REMARKS
KALISPELL      SUNNY     44  37  76 CALM      30.22S
MISSOULA       CLEAR     53  44  71 E3        30.28R
BUTTE          CLEAR     43  38  82 SE5       30.39R
MULLAN PASS    CLEAR     60  30  32 S3        30.37S
DEER LODGE       N/A     43  39  87 CALM      30.38S
EUREKA           N/A     48  37  66 CALM      30.23S
HAMILTON         N/A     55  41  58 S7        30.28S
LIBBY            N/A     46  37  71 CALM      30.23R
PLAINS           N/A     49  37  63 CALM      30.22R
RONAN            N/A     48  42  80 CALM      30.25S
$$

MTZ008-052>055-301200-
SOUTHWEST MONTANA

CITY           SKY/WX    TMP DP  RH WIND       PRES   REMARKS
BOZEMAN        CLEAR     48  42  80 SE7       30.33S
DILLON         CLEAR     49  41  74 SW10      30.35R
W YELLOWSTONE  CLEAR     36  34  93 CALM      30.46S
THREE FORKS      N/A     47  30  51 CALM      30.28R
TWIN BRIDGES     N/A     50  41  71 CALM      30.30R
$$

MTZ009-010-012-014-046-048-049-054-301200-
EAST SLOPES AND CENTRAL MONTANA

CITY           SKY/WX    TMP DP  RH WIND       PRES   REMARKS
CUT BANK       CLEAR     48  38  68 NW6       30.26R
GREAT FALLS    CLEAR     52  43  71 W7        30.25S
MALMSTROM AFB  CLEAR     55  44  65 NW5       30.25R
HELENA         CLEAR     56  41  57 CALM      30.30R
CONRAD           N/A     46  43  90 W1        30.25R
$$

MTZ011-013-016-021-045-047-050-051-301200-
NORTH CENTRAL MONTANA

CITY           SKY/WX    TMP DP  RH WIND       PRES   REMARKS
HAVRE          MOCLDY    53  50  89 MISG      30.20R
LEWISTOWN      CLEAR     50  42  74 SE7       30.28R
CHINOOK          N/A     54  52  94 CALM      30.20S
FORT BENTON      N/A     55  45  67 CALM      30.24R
$$

MTZ017>020-022>027-061-062-301200-
NORTHEAST MONTANA

CITY           SKY/WX    TMP DP  RH WIND       PRES   REMARKS
GLASGOW        CLEAR     56  51  84 N5        30.16R
JORDAN           N/A     51  47  86 CALM      30.18S
SIDNEY         PTCLDY    54  48  82 SW3       30.15S
WOLF POINT     PTCLDY    54  50  86 CALM      30.16R
MALTA            N/A     52  46  79 CALM      30.14R
PLENTYWOOD       N/A     52  50  93 N3        30.14R
POPLAR           N/A     55  52  88 CALM      30.16R
SCOBEY           N/A     48  43  83 CALM      30.14R
$$

MTZ028>42-056>058-301200-
SOUTHCENTRAL AND SOUTHEAST MONTANA

CITY           SKY/WX    TMP DP  RH WIND       PRES   REMARKS
BAKER          CLEAR     62  39  42 SW10      30.19S
BILLINGS       PTCLDY    59  40  49 SW13      30.27R
LIVINGSTON     CLEAR     47  41  80 NW8       30.33R
MILES CITY     CLEAR     55  46  71 S7        30.17S
EKALAKA          N/A     60  35  39 SE5       30.19S
FORSYTH          N/A     61  43  51 W5        30.18R
LAUREL           N/A     53  39  59 SW2       30.23R
ROUNDUP          N/A     53  42  66 SW10      30.14S
$$

REGIONAL REPORTS...DAKOTAS

CITY           SKY/WX    TMP DP  RH WIND       PRES   REMARKS
WILLISTON      CLEAR     53  50  89 S3        30.13S
MINOT          CLOUDY    61  52  72 W8        30.07S
DICKINSON      CLEAR     54  44  69 SW3       30.15S
BEACH          FAIR      50  46  87 S3        30.18R
CROSBY         FAIR      54  54 100 SW6       30.12R
BISMARCK       CLEAR     56  49  77 W5        30.12R
GRAND FORKS    CLEAR     62  56  80 W8        29.96R
FARGO          CLEAR     59  55  87 W9        30.01R
BUFFALO SD       N/A     57  40  52 W8        30.15S
RAPID CITY     CLEAR     56  45  66 W9        30.24R
$$

REGIONAL REPORTS...WYOMING/IDAHO/WASHINGTON

CITY           SKY/WX    TMP DP  RH WIND       PRES   REMARKS
GILLETTE       CLEAR     53  37  54 S7        30.29S
SHERIDAN       CLEAR     48  40  73 CALM      30.28S
BUFFALO WY     CLEAR     58  34  40 W12       30.34S
CODY           CLEAR     54  36  50 CALM      30.34S
YELLOWSTONE LA   N/A     35  32  88 NW5       30.54S
IDAHO FALLS    CLEAR     43  40  89 N6        30.32S
SALMON         CLEAR     50  43  76 CALM      30.31S
BOISE          CLEAR     63  37  38 SE7       30.18R
SPOKANE        CLEAR     64  33  31 S3        30.15S
$$

REGIONAL REPORTS...ALBERTA

CITY           SKY/WX    TMP DP  RH WIND       PRES   REMARKS
EDMONTON       CLEAR     54  45  71 W6        30.15R
CALGARY        PTCLDY    48  41  76 CALM      30.24S
LETHBRIDGE     CLEAR     45  43  93 SW6       30.23R
MEDICINE HAT   PTCLDY    50  46  87 S5        30.20R
WATERTON GATE    N/A     37  36  93 SW1         N/A
CARDSTON         N/A     45  37  76 SE6         N/A
MILK RIVER       N/A     45  43  93 NW6         N/A
ONEFOUR          N/A     50  46  87 N1          N/A
$$

REGIONAL REPORTS...SASKATCHEWAN

CITY           SKY/WX    TMP DP  RH WIND       PRES   REMARKS
SWIFT CURRENT  CLEAR     50  50 100 W10       30.18R
REGINA         PTCLDY    54  52  94 W13       30.10R
SASKATOON      PTCLDY    50  48  93 W8        30.09R
CYPRESS HILLS    N/A     52  39  62 W2          N/A
VAL MARIE        N/A     46  45  93 N3          N/A
ROCKGLEN         N/A     50  48  93 SW8         N/A
$$



USA.gov is the U.S. government's official web portal to all federal, state and local government web resources and services.